Time,TemperatureF,DewpointF,PressureIn,WindDirection,WindDirectionDegrees,WindSpeedMPH,WindSpeedGustMPH,Humidity,HourlyPrecipIn,Conditions,Clouds,dailyrainin,SoftwareType,DateUTC
2013-02-17 00:01:00,37.0,-11.0,-100.00,South,189,5.0,8.0,12,-99.99,,,-99.99,,2013-02-17 05:01:00,
2013-02-17 00:11:00,37.0,-12.0,-100.00,South,186,6.0,9.0,11,-99.99,,,-99.99,,2013-02-17 05:11:00,
2013-02-17 00:42:00,37.0,-12.0,-100.00,SSW,198,4.0,8.0,11,-99.99,,,-99.99,,2013-02-17 05:42:00,
2013-02-17 00:52:00,37.0,-12.0,-100.00,SSW,198,4.0,8.0,11,-99.99,,,-99.99,,2013-02-17 05:52:00,
2013-02-17 01:02:00,37.0,-12.0,-100.00,SSW,192,5.0,7.0,11,-99.99,,,-99.99,,2013-02-17 06:02:00,
2013-02-17 01:11:00,37.0,-10.0,-100.00,South,178,8.0,13.0,12,-99.99,,,-99.99,,2013-02-17 06:11:00,
2013-02-17 01:21:00,37.0,-10.0,-100.00,South,178,8.0,13.0,12,-99.99,,,-99.99,,2013-02-17 06:21:00,
2013-02-17 01:41:00,36.0,-9.0,-100.00,South,180,7.0,15.0,13,-99.99,,,-99.99,,2013-02-17 06:41:00,
2013-02-17 01:52:00,36.0,-9.0,-100.00,South,180,7.0,15.0,13,-99.99,,,-99.99,,2013-02-17 06:52:00,
2013-02-17 02:01:00,37.0,-10.0,-100.00,SSW,199,5.0,11.0,12,-99.99,,,-99.99,,2013-02-17 07:01:00,
2013-02-17 02:11:00,37.0,-10.0,-100.00,SW,234,3.0,6.0,12,-99.99,,,-99.99,,2013-02-17 07:11:00,
2013-02-17 02:21:00,37.0,-10.0,-100.00,SW,234,3.0,6.0,12,-99.99,,,-99.99,,2013-02-17 07:21:00,
2013-02-17 02:41:00,37.0,-7.0,-100.00,SW,216,1.0,5.0,14,-99.99,,,-99.99,,2013-02-17 07:41:00,
2013-02-17 02:52:00,37.0,-7.0,-100.00,SW,216,1.0,5.0,14,-99.99,,,-99.99,,2013-02-17 07:52:00,
2013-02-17 03:01:00,37.0,-6.0,-100.00,South,182,2.0,6.0,15,-99.99,,,-99.99,,2013-02-17 08:01:00,
2013-02-17 03:11:00,37.0,-2.0,-100.00,SW,220,4.0,8.0,18,-99.99,,,-99.99,,2013-02-17 08:11:00,
2013-02-17 03:21:00,37.0,-2.0,-100.00,SW,220,4.0,8.0,18,-99.99,,,-99.99,,2013-02-17 08:21:00,
2013-02-17 03:31:00,37.0,-2.0,-100.00,SW,220,4.0,8.0,18,-99.99,,,-99.99,,2013-02-17 08:31:00,
2013-02-17 03:42:00,37.0,2.0,-100.00,SSW,208,4.0,11.0,22,-99.99,,,-99.99,,2013-02-17 08:42:00,
2013-02-17 03:52:00,37.0,2.0,-100.00,SSW,208,4.0,11.0,22,-99.99,,,-99.99,,2013-02-17 08:52:00,
2013-02-17 04:01:00,37.0,3.0,-100.00,SSE,149,2.0,8.0,23,-99.99,,,-99.99,,2013-02-17 09:01:00,
2013-02-17 04:11:00,37.0,2.0,-100.00,SSW,201,3.0,10.0,22,-99.99,,,-99.99,,2013-02-17 09:11:00,
2013-02-17 04:21:00,37.0,2.0,-100.00,SSW,201,3.0,10.0,22,-99.99,,,-99.99,,2013-02-17 09:21:00,
2013-02-17 04:31:00,37.0,2.0,-100.00,SSW,201,3.0,10.0,22,-99.99,,,-99.99,,2013-02-17 09:31:00,
2013-02-17 04:41:00,38.0,1.0,-100.00,South,188,6.0,16.0,20,-99.99,,,-99.99,,2013-02-17 09:41:00,
2013-02-17 04:52:00,38.0,1.0,-100.00,South,188,6.0,16.0,20,-99.99,,,-99.99,,2013-02-17 09:52:00,
2013-02-17 05:01:00,38.0,1.0,-100.00,SSW,195,5.0,13.0,20,-99.99,,,-99.99,,2013-02-17 10:01:00,
2013-02-17 05:11:00,38.0,1.0,-100.00,SSW,199,4.0,15.0,20,-99.99,,,-99.99,,2013-02-17 10:11:00,
2013-02-17 05:21:00,38.0,1.0,-100.00,SSW,199,4.0,15.0,20,-99.99,,,-99.99,,2013-02-17 10:21:00,
2013-02-17 05:31:00,38.0,1.0,-100.00,SSW,199,4.0,15.0,20,-99.99,,,-99.99,,2013-02-17 10:31:00,
2013-02-17 05:41:00,37.0,-1.0,-100.00,SSE,157,3.0,14.0,19,-99.99,,,-99.99,,2013-02-17 10:41:00,
2013-02-17 05:52:00,37.0,-1.0,-100.00,SSE,157,3.0,14.0,19,-99.99,,,-99.99,,2013-02-17 10:52:00,
2013-02-17 06:01:00,36.0,-2.0,-100.00,West,268,2.0,10.0,19,-99.99,,,-99.99,,2013-02-17 11:01:00,
2013-02-17 06:11:00,37.0,-1.0,-100.00,SSW,203,4.0,11.0,20,-99.99,,,-99.99,,2013-02-17 11:11:00,
2013-02-17 06:21:00,37.0,-1.0,-100.00,SSW,203,4.0,11.0,20,-99.99,,,-99.99,,2013-02-17 11:21:00,
2013-02-17 06:32:00,37.0,-1.0,-100.00,SSW,203,4.0,11.0,20,-99.99,,,-99.99,,2013-02-17 11:32:00,
2013-02-17 06:41:00,36.0,1.0,-100.00,SSW,213,3.0,10.0,21,-99.99,,,-99.99,,2013-02-17 11:41:00,
2013-02-17 06:52:00,36.0,1.0,-100.00,SSW,213,3.0,10.0,21,-99.99,,,-99.99,,2013-02-17 11:52:00,
2013-02-17 07:03:00,36.0,2.0,-100.00,SSW,210,4.0,11.0,23,-99.99,,,-99.99,,2013-02-17 12:03:00,
2013-02-17 07:11:00,36.0,2.0,-100.00,SSW,208,3.0,7.0,22,-99.99,,,-99.99,,2013-02-17 12:11:00,
2013-02-17 07:22:00,36.0,2.0,-100.00,SSW,208,3.0,7.0,22,-99.99,,,-99.99,,2013-02-17 12:22:00,
2013-02-17 07:31:00,36.0,2.0,-100.00,SSW,208,3.0,7.0,22,-99.99,,,-99.99,,2013-02-17 12:31:00,
2013-02-17 07:42:00,36.0,2.0,-100.00,SW,223,2.0,8.0,23,-99.99,,,-99.99,,2013-02-17 12:42:00,
2013-02-17 07:52:00,36.0,2.0,-100.00,SW,223,2.0,8.0,23,-99.99,,,-99.99,,2013-02-17 12:52:00,
2013-02-17 08:02:00,36.0,3.0,-100.00,SSW,206,2.0,6.0,24,-99.99,,,-99.99,,2013-02-17 13:02:00,
2013-02-17 08:11:00,36.0,3.0,-100.00,SW,224,4.0,11.0,23,-99.99,,,-99.99,,2013-02-17 13:11:00,
2013-02-17 08:21:00,36.0,3.0,-100.00,SW,224,4.0,11.0,23,-99.99,,,-99.99,,2013-02-17 13:21:00,
2013-02-17 08:32:00,36.0,3.0,-100.00,SW,224,4.0,11.0,23,-99.99,,,-99.99,,2013-02-17 13:32:00,
2013-02-17 08:41:00,35.0,3.0,-100.00,SSW,203,5.0,11.0,24,-99.99,,,-99.99,,2013-02-17 13:41:00,
2013-02-17 08:52:00,35.0,3.0,-100.00,SSW,203,5.0,11.0,24,-99.99,,,-99.99,,2013-02-17 13:52:00,
2013-02-17 09:01:00,35.0,2.0,-100.00,SSW,206,3.0,10.0,23,-99.99,,,-99.99,,2013-02-17 14:01:00,
2013-02-17 09:11:00,35.0,2.0,-100.00,SSW,212,4.0,11.0,24,-99.99,,,-99.99,,2013-02-17 14:11:00,
2013-02-17 09:21:00,35.0,2.0,-100.00,SSW,212,4.0,11.0,24,-99.99,,,-99.99,,2013-02-17 14:21:00,
2013-02-17 09:32:00,35.0,2.0,-100.00,SSW,212,4.0,11.0,24,-99.99,,,-99.99,,2013-02-17 14:32:00,
2013-02-17 09:42:00,34.0,3.0,-100.00,SW,219,2.0,6.0,25,-99.99,,,-99.99,,2013-02-17 14:42:00,
2013-02-17 09:53:00,34.0,3.0,-100.00,SW,219,2.0,6.0,25,-99.99,,,-99.99,,2013-02-17 14:53:00,
2013-02-17 10:01:00,34.0,3.0,-100.00,South,179,2.0,7.0,26,-99.99,,,-99.99,,2013-02-17 15:01:00,
2013-02-17 10:11:00,34.0,4.0,-100.00,SSW,210,2.0,5.0,26,-99.99,,,-99.99,,2013-02-17 15:11:00,
2013-02-17 10:21:00,34.0,4.0,-100.00,SSW,210,2.0,5.0,26,-99.99,,,-99.99,,2013-02-17 15:21:00,
2013-02-17 10:31:00,34.0,4.0,-100.00,SSW,210,2.0,5.0,26,-99.99,,,-99.99,,2013-02-17 15:31:00,
2013-02-17 10:41:00,34.0,5.0,-100.00,SW,223,5.0,17.0,28,-99.99,,,-99.99,,2013-02-17 15:41:00,
2013-02-17 10:52:00,34.0,5.0,-100.00,SW,223,5.0,17.0,28,-99.99,,,-99.99,,2013-02-17 15:52:00,
2013-02-17 11:01:00,34.0,5.0,-100.00,SW,222,6.0,15.0,28,-99.99,,,-99.99,,2013-02-17 16:01:00,
2013-02-17 11:11:00,34.0,6.0,-100.00,SW,232,4.0,13.0,29,-99.99,,,-99.99,,2013-02-17 16:11:00,
2013-02-17 11:21:00,34.0,6.0,-100.00,SW,232,4.0,13.0,29,-99.99,,,-99.99,,2013-02-17 16:21:00,
2013-02-17 11:31:00,34.0,6.0,-100.00,SW,232,4.0,13.0,29,-99.99,,,-99.99,,2013-02-17 16:31:00,
2013-02-17 11:41:00,27.0,11.0,-100.00,ESE,119,4.0,7.0,49,-99.99,,,-99.99,,2013-02-17 16:41:00,
2013-02-17 11:52:00,27.0,11.0,-100.00,ESE,119,4.0,7.0,49,-99.99,,,-99.99,,2013-02-17 16:52:00,
2013-02-17 12:02:00,28.0,12.0,-100.00,ESE,117,3.0,7.0,49,-99.99,,,-99.99,,2013-02-17 17:02:00,
2013-02-17 12:11:00,29.0,13.0,-100.00,East,83,4.0,7.0,51,-99.99,,,-99.99,,2013-02-17 17:11:00,
2013-02-17 12:21:00,29.0,13.0,-100.00,East,83,4.0,7.0,51,-99.99,,,-99.99,,2013-02-17 17:21:00,
2013-02-17 12:31:00,29.0,13.0,-100.00,East,83,4.0,7.0,51,-99.99,,,-99.99,,2013-02-17 17:31:00,
2013-02-17 12:41:00,31.0,10.0,-100.00,SW,217,4.0,14.0,40,-99.99,,,-99.99,,2013-02-17 17:41:00,
2013-02-17 12:52:00,31.0,10.0,-100.00,SW,217,4.0,14.0,40,-99.99,,,-99.99,,2013-02-17 17:52:00,
2013-02-17 13:01:00,31.0,11.0,-100.00,SW,233,4.0,15.0,43,-99.99,,,-99.99,,2013-02-17 18:01:00,
2013-02-17 13:11:00,32.0,13.0,-100.00,WSW,237,3.0,9.0,44,-99.99,,,-99.99,,2013-02-17 18:11:00,
2013-02-17 13:21:00,32.0,13.0,-100.00,WSW,237,3.0,9.0,44,-99.99,,,-99.99,,2013-02-17 18:21:00,
2013-02-17 13:33:00,32.0,13.0,-100.00,WSW,237,3.0,9.0,44,-99.99,,,-99.99,,2013-02-17 18:33:00,
2013-02-17 13:42:00,33.0,15.0,-100.00,West,259,4.0,13.0,48,-99.99,,,-99.99,,2013-02-17 18:42:00,
2013-02-17 13:52:00,33.0,15.0,-100.00,West,259,4.0,13.0,48,-99.99,,,-99.99,,2013-02-17 18:52:00,
2013-02-17 14:01:00,33.0,15.0,-100.00,West,259,4.0,13.0,48,-99.99,,,-99.99,,2013-02-17 19:01:00,
2013-02-17 14:11:00,30.0,17.0,-100.00,WNW,289,8.0,19.0,58,-99.99,,,-99.99,,2013-02-17 19:11:00,
2013-02-17 14:21:00,30.0,17.0,-100.00,WNW,289,8.0,19.0,58,-99.99,,,-99.99,,2013-02-17 19:21:00,
2013-02-17 14:32:00,30.0,17.0,-100.00,WNW,289,8.0,19.0,58,-99.99,,,-99.99,,2013-02-17 19:32:00,
2013-02-17 14:41:00,28.0,18.0,-100.00,West,270,6.0,18.0,63,-99.99,,,-99.99,,2013-02-17 19:41:00,
2013-02-17 14:52:00,28.0,18.0,-100.00,West,270,6.0,18.0,63,-99.99,,,-99.99,,2013-02-17 19:52:00,
2013-02-17 15:01:00,28.0,18.0,-100.00,WSW,258,8.0,23.0,64,-99.99,,,-99.99,,2013-02-17 20:01:00,
2013-02-17 15:11:00,27.0,18.0,-100.00,West,271,7.0,18.0,70,-99.99,,,-99.99,,2013-02-17 20:11:00,
2013-02-17 15:21:00,27.0,18.0,-100.00,West,271,7.0,18.0,70,-99.99,,,-99.99,,2013-02-17 20:21:00,
2013-02-17 15:31:00,27.0,18.0,-100.00,West,271,7.0,18.0,70,-99.99,,,-99.99,,2013-02-17 20:31:00,
2013-02-17 15:42:00,27.0,15.0,-100.00,WSW,255,16.0,34.0,60,-99.99,,,-99.99,,2013-02-17 20:42:00,
2013-02-17 15:52:00,27.0,15.0,-100.00,WSW,255,16.0,34.0,60,-99.99,,,-99.99,,2013-02-17 20:52:00,
2013-02-17 16:01:00,26.0,14.0,-100.00,WSW,250,20.0,39.0,58,-99.99,,,-99.99,,2013-02-17 21:01:00,
2013-02-17 16:11:00,25.0,12.0,-100.00,WSW,241,21.0,34.0,58,-99.99,,,-99.99,,2013-02-17 21:11:00,
2013-02-17 16:21:00,25.0,12.0,-100.00,WSW,241,21.0,34.0,58,-99.99,,,-99.99,,2013-02-17 21:21:00,
2013-02-17 16:31:00,25.0,12.0,-100.00,WSW,241,21.0,34.0,58,-99.99,,,-99.99,,2013-02-17 21:31:00,
2013-02-17 16:41:00,24.0,10.0,-100.00,WSW,246,16.0,34.0,53,-99.99,,,-99.99,,2013-02-17 21:41:00,
2013-02-17 16:53:00,24.0,10.0,-100.00,WSW,246,16.0,34.0,53,-99.99,,,-99.99,,2013-02-17 21:53:00,
2013-02-17 17:01:00,25.0,8.0,-100.00,WSW,239,14.0,30.0,47,-99.99,,,-99.99,,2013-02-17 22:01:00,
2013-02-17 17:11:00,25.0,4.0,-100.00,WSW,246,13.0,29.0,41,-99.99,,,-99.99,,2013-02-17 22:11:00,
2013-02-17 17:21:00,25.0,4.0,-100.00,WSW,246,13.0,29.0,41,-99.99,,,-99.99,,2013-02-17 22:21:00,
2013-02-17 17:32:00,25.0,4.0,-100.00,WSW,246,13.0,29.0,41,-99.99,,,-99.99,,2013-02-17 22:32:00,
2013-02-17 17:41:00,25.0,2.0,-100.00,WSW,239,10.0,25.0,36,-99.99,,,-99.99,,2013-02-17 22:41:00,
2013-02-17 17:52:00,25.0,2.0,-100.00,WSW,239,10.0,25.0,36,-99.99,,,-99.99,,2013-02-17 22:52:00,
2013-02-17 18:02:00,24.0,2.0,-100.00,WSW,241,10.0,25.0,36,-99.99,,,-99.99,,2013-02-17 23:02:00,
2013-02-17 18:11:00,25.0,2.0,-100.00,WSW,249,10.0,25.0,37,-99.99,,,-99.99,,2013-02-17 23:11:00,
2013-02-17 18:21:00,25.0,2.0,-100.00,WSW,249,10.0,25.0,37,-99.99,,,-99.99,,2013-02-17 23:21:00,
2013-02-17 18:31:00,25.0,2.0,-100.00,WSW,249,10.0,25.0,37,-99.99,,,-99.99,,2013-02-17 23:31:00,
2013-02-17 18:42:00,23.0,4.0,-100.00,West,269,7.0,20.0,42,-99.99,,,-99.99,,2013-02-17 23:42:00,
2013-02-17 18:52:00,23.0,4.0,-100.00,West,269,7.0,20.0,42,-99.99,,,-99.99,,2013-02-17 23:52:00,
2013-02-17 19:01:00,23.0,4.0,-100.00,West,269,7.0,20.0,42,-99.99,,,-99.99,,2013-02-18 00:01:00,
2013-02-17 19:11:00,21.0,7.0,-100.00,WNW,292,6.0,14.0,53,-99.99,,,-99.99,,2013-02-18 00:11:00,
2013-02-17 19:22:00,21.0,7.0,-100.00,WNW,292,6.0,14.0,53,-99.99,,,-99.99,,2013-02-18 00:22:00,
2013-02-17 19:31:00,21.0,7.0,-100.00,WNW,292,6.0,14.0,53,-99.99,,,-99.99,,2013-02-18 00:31:00,
2013-02-17 19:41:00,18.0,7.0,-100.00,WNW,302,9.0,18.0,60,-99.99,,,-99.99,,2013-02-18 00:41:00,
2013-02-17 19:52:00,18.0,7.0,-100.00,WNW,302,9.0,18.0,60,-99.99,,,-99.99,,2013-02-18 00:52:00,
2013-02-17 20:01:00,18.0,8.0,-100.00,West,280,11.0,23.0,65,-99.99,,,-99.99,,2013-02-18 01:01:00,
2013-02-17 20:11:00,18.0,8.0,-100.00,West,273,9.0,17.0,66,-99.99,,,-99.99,,2013-02-18 01:11:00,
2013-02-17 20:21:00,18.0,8.0,-100.00,West,273,9.0,17.0,66,-99.99,,,-99.99,,2013-02-18 01:21:00,
2013-02-17 20:31:00,18.0,8.0,-100.00,West,273,9.0,17.0,66,-99.99,,,-99.99,,2013-02-18 01:31:00,
2013-02-17 20:41:00,17.0,9.0,-100.00,West,273,8.0,17.0,72,-99.99,,,-99.99,,2013-02-18 01:41:00,
2013-02-17 20:52:00,17.0,9.0,-100.00,West,273,8.0,17.0,72,-99.99,,,-99.99,,2013-02-18 01:52:00,
2013-02-17 21:01:00,17.0,9.0,-100.00,West,273,8.0,17.0,72,-99.99,,,-99.99,,2013-02-18 02:01:00,
2013-02-17 21:11:00,16.0,9.0,-100.00,West,277,7.0,14.0,71,-99.99,,,-99.99,,2013-02-18 02:11:00,
2013-02-17 21:21:00,16.0,9.0,-100.00,West,277,7.0,14.0,71,-99.99,,,-99.99,,2013-02-18 02:21:00,
2013-02-17 21:32:00,16.0,9.0,-100.00,West,277,7.0,14.0,71,-99.99,,,-99.99,,2013-02-18 02:32:00,
2013-02-17 21:41:00,16.0,8.0,-100.00,West,261,9.0,18.0,71,-99.99,,,-99.99,,2013-02-18 02:41:00,
2013-02-17 21:52:00,16.0,8.0,-100.00,West,261,9.0,18.0,71,-99.99,,,-99.99,,2013-02-18 02:52:00,
2013-02-17 22:01:00,16.0,7.0,-100.00,West,273,7.0,14.0,68,-99.99,,,-99.99,,2013-02-18 03:01:00,
2013-02-17 22:11:00,15.0,7.0,-100.00,West,268,6.0,11.0,68,-99.99,,,-99.99,,2013-02-18 03:11:00,
2013-02-17 22:21:00,15.0,7.0,-100.00,West,268,6.0,11.0,68,-99.99,,,-99.99,,2013-02-18 03:21:00,
2013-02-17 22:31:00,15.0,7.0,-100.00,West,268,6.0,11.0,68,-99.99,,,-99.99,,2013-02-18 03:31:00,
2013-02-17 22:42:00,15.0,8.0,-100.00,West,266,8.0,18.0,72,-99.99,,,-99.99,,2013-02-18 03:42:00,
2013-02-17 22:52:00,15.0,8.0,-100.00,West,266,8.0,18.0,72,-99.99,,,-99.99,,2013-02-18 03:52:00,
2013-02-17 23:01:00,15.0,8.0,-100.00,West,266,8.0,18.0,72,-99.99,,,-99.99,,2013-02-18 04:01:00,
2013-02-17 23:11:00,15.0,7.0,-100.00,West,264,9.0,20.0,70,-99.99,,,-99.99,,2013-02-18 04:11:00,
2013-02-17 23:21:00,15.0,7.0,-100.00,West,264,9.0,20.0,70,-99.99,,,-99.99,,2013-02-18 04:21:00,
2013-02-17 23:32:00,15.0,7.0,-100.00,West,264,9.0,20.0,70,-99.99,,,-99.99,,2013-02-18 04:32:00,
2013-02-17 23:41:00,15.0,6.0,-100.00,West,269,9.0,26.0,67,-99.99,,,-99.99,,2013-02-18 04:41:00,
2013-02-17 23:52:00,15.0,6.0,-100.00,West,269,9.0,26.0,67,-99.99,,,-99.99,,2013-02-18 04:52:00,